Probability
3 3 2 1 0 0 0 0 0 0 0 0 0 0 0 0 0 0 0 0 0 0 0 0 0 0 0 0 0 0 0 0 0 0 0 0 0 0
2 2 2 1 0 0 0 0 0 0 0 0 0 0 0 0 0 0 0 0 0 0 0 0 0 0 0 0 0 0 0 0 0 0 0 0 0 0
1 1 1 0 0 0 0 0 0 0 0 0 0 0 0 0 0 0 0 0 0 0 0 0 0 0 0 0 0 0 0 0 0 0 0 0 0 0
0 0 0 0 0 0 0 0 0 0 0 0 0 0 0 0 0 0 0 0 0 0 0 0 0 0 0 0 0 0 0 0 0 0 0 0 0 0
0 0 0 0 0 0 0 0 0 0 0 0 0 0 0 0 0 0 0 0 0 0 0 0 0 0 0 0 0 0 0 0 0 0 0 0 0 0
0 0 0 0 0 0 0 0 0 0 0 0 0 0 0 0 0 0 0 0 0 0 0 0 0 0 0 0 0 0 0 0 0 0 0 0 0 0
0 0 0 0 0 0 0 0 0 0 0 0 0 0 0 0 0 0 0 0 0 0 0 0 0 0 0 0 0 0 0 0 0 0 0 0 0 0
0 0 0 0 0 0 0 0 0 0 0 0 0 0 0 0 0 0 0 0 0 0 0 0 0 0 0 0 0 0 0 0 0 0 0 0 0 0
0 0 0 0 0 0 0 0 0 0 0 0 0 0 0 0 0 0 0 0 0 0 0 0 0 0 0 0 0 0 0 0 0 0 0 0 0 0
0 0 0 0 0 0 0 0 0 0 0 0 0 0 0 0 0 0 0 0 0 0 0 0 0 0 0 0 0 0 0 0 0 0 0 0 0 0
0 0 0 0 0 0 0 0 0 0 0 0 0 0 0 0 0 0 0 0 0 0 0 0 0 0 0 0 0 0 0 0 0 0 0 0 0 0
0 0 0 0 0 0 0 0 0 0 0 0 0 0 0 0 0 0 0 0 0 0 0 0 0 0 0 0 0 0 0 0 0 0 0 0 0 0
0 0 0 0 0 0 0 0 0 0 0 0 0 0 0 0 0 0 0 0 0 0 0 0 0 0 0 0 0 0 0 0 0 0 0 0 0 0
0 0 0 0 0 0 0 0 0 0 0 0 0 0 0 0 0 0 0 0 0 0 0 0 0 0 0 0 0 0 0 0 0 0 0 0 0 0
0 0 0 0 0 0 0 0 0 0 0 0 0 0 0 0 0 0 0 0 0 0 0 0 0 0 0 0 0 0 0 0 0 0 0 0 0 0
0 0 0 0 0 0 0 0 0 0 0 0 0 0 0 0 0 0 0 0 0 0 0 0 0 0 0 0 0 0 0 0 0 0 0 0 0 0
0 0 0 0 0 0 0 0 0 0 0 0 0 0 0 0 0 0 0 0 0 0 0 0 0 0 0 0 0 0 0 0 0 0 0 0 0 0
0 0 0 0 0 0 0 0 0 0 0 0 0 0 0 0 0 0 0 0 0 0 0 0 0 0 0 0 0 0 0 0 0 0 0 0 0 0
0 0 0 0 0 0 0 0 0 0 0 0 0 0 0 0 0 0 0 0 0 0 0 0 0 0 0 0 0 0 0 0 0 0 0 0 0 0
0 0 0 0 0 0 0 0 0 0 0 0 0 0 0 0 0 0 0 0 0 0 0 0 0 0 0 0 0 0 0 0 0 0 0 0 0 0
0 0 0 0 0 0 0 0 0 0 0 0 0 0 0 0 0 0 0 0 0 0 0 0 0 0 0 0 0 0 0 0 0 0 0 0 0 0
0 0 0 0 0 0 0 0 0 0 0 0 0 0 0 0 0 0 0 0 0 0 0 0 0 0 0 0 0 0 0 0 0 0 0 0 0 0
0 0 0 0 0 0 0 0 0 0 0 0 0 0 0 0 0 0 0 0 0 0 0 0 0 0 0 0 0 0 0 0 0 0 0 0 0 0
Wind_Speed
3 3 2 2 2 2 2 3 5 5 5 4 2 3 3 2 4 3 3 8 11 13 14 15 16 17 17 18 18 18 19 19 19 19 20 20 20 20
2 4 4 3 3 2 2 2 1 3 3 2 2 2 3 3 6 4 4 10 13 14 15 16 17 17 17 18 18 19 19 19 20 20 20 21 21 21
4 5 5 5 4 3 3 3 2 2 2 1 1 1 2 3 3 3 4 5 5 14 16 17 17 17 18 18 19 19 19 20 20 20 21 21 21 22
5 6 6 5 5 4 3 3 3 2 2 2 1 1 2 3 3 4 4 5 4 11 16 17 17 17 18 18 19 19 19 20 20 20 21 21 22 22
6 6 6 6 5 4 4 3 2 2 1 2 1 1 1 2 2 3 4 4 5 8 13 15 16 17 17 18 19 19 19 19 20 20 20 21 22 22
7 6 6 5 5 4 3 3 2 2 1 1 1 1 1 2 2 2 3 2 4 5 9 11 14 16 17 18 19 19 20 20 20 20 20 21 21 22
7 6 6 6 6 4 3 2 2 1 1 0 0 0 1 1 2 2 2 3 4 5 4 4 5 5 8 14 18 19 20 20 20 20 21 21 22 22
7 6 5 5 5 5 4 2 1 1 1 0 1 1 2 2 2 1 2 2 4 3 3 6 5 7 7 7 15 20 20 20 20 21 21 21 22 22
5 4 3 4 4 3 2 2 2 3 3 2 2 3 3 2 2 2 3 4 6 5 5 8 6 8 7 10 19 21 21 21 21 21 21 21 21 22
4 4 3 3 2 2 1 1 2 3 4 3 3 4 4 3 3 4 4 5 6 5 4 7 6 6 8 6 16 21 21 21 20 20 21 21 22 22
3 3 3 2 1 2 2 2 3 4 6 6 7 8 11 12 9 3 3 4 6 5 3 4 4 4 5 7 10 16 17 18 21 22 22 22 22 22
1 1 1 1 3 4 2 2 3 3 3 4 6 8 7 8 11 4 3 3 4 5 2 2 3 4 6 4 4 5 8 16 22 22 23 23 23 13
1 1 1 3 5 7 5 2 5 5 2 3 4 4 4 3 3 2 2 3 4 6 4 3 4 3 5 7 6 6 6 7 8 12 18 22 22 17
1 1 1 5 7 8 5 6 8 7 2 3 3 3 3 3 3 3 4 5 6 9 8 6 7 7 9 11 10 7 6 7 8 10 9 15 17 20
1 4 6 7 7 5 7 8 6 2 2 2 3 4 3 3 4 4 6 6 8 9 9 10 10 10 10 11 11 10 10 9 8 7 7 7 8 9
2 4 7 7 5 6 6 4 2 2 2 3 3 4 4 4 4 4 5 6 7 7 7 9 10 11 11 12 12 13 10 9 7 8 9 10 9 9
3 2 2 2 2 2 2 3 2 3 3 3 3 4 5 6 6 5 5 6 7 10 9 5 7 9 12 12 12 13 12 11 11 10 10 12 10 9
4 2 2 2 2 3 3 3 3 3 3 3 4 5 6 7 7 6 6 7 9 9 9 8 7 8 8 9 15 14 11 11 10 9 9 12 13 9
2 2 3 3 3 3 3 3 4 4 4 4 5 6 6 7 7 8 8 8 9 9 9 8 7 9 12 13 8 11 10 10 10 10 10 10 13 11
2 2 3 3 3 3 4 4 5 5 5 5 6 6 7 7 8 8 8 9 10 11 10 8 7 8 10 13 14 11 12 12 11 12 11 10 11 16
3 3 3 4 4 4 4 4 5 6 6 6 7 7 7 7 8 9 9 14 13 11 12 11 10 14 11 10 12 12 9 12 15 12 12 12 13 12
4 4 4 4 4 4 5 5 5 6 7 7 7 7 7 8 9 11 10 11 11 11 13 12 11 10 9 12 14 16 16 12 12 19 22 20 13 10
4 4 4 4 5 4 5 6 7 7 7 7 8 8 8 9 9 10 11 11 12 13 13 13 11 9 10 11 14 14 17 16 12 11 10 15 21 25
Wind_Direction
187 172 155 131 124 133 136 160 168 188 211 197 190 188 176 165 193 196 220 254 266 274 281 286 289 289 290 290 291 291 291 291 290 289 288 287 286 286
135 134 125 114 103 96 104 101 137 174 178 161 183 173 178 187 210 214 233 260 270 278 282 284 285 286 288 289 289 289 288 288 287 286 286 286 286 286
113 120 117 113 113 102 97 101 91 106 152 134 131 157 171 191 218 227 240 250 266 277 282 284 285 286 286 287 287 287 287 286 286 286 286 286 286 286
107 110 111 109 105 101 100 95 95 89 127 143 147 179 204 211 218 241 253 257 253 275 282 285 286 286 287 287 286 286 285 285 285 285 285 285 285 285
99 106 108 110 106 101 99 98 97 96 100 132 153 185 228 229 233 251 256 262 267 278 286 288 290 290 288 288 288 287 286 285 284 283 283 283 283 284
85 93 99 105 110 113 111 118 125 120 124 139 172 216 247 251 235 249 272 271 282 289 287 288 289 294 295 295 294 292 289 286 284 283 282 281 281 280
80 80 87 100 111 111 109 118 114 112 125 153 196 259 271 284 267 255 274 295 290 275 277 289 298 291 291 291 292 288 286 285 284 284 284 283 282 281
89 84 92 94 100 97 108 126 144 153 147 189 246 253 266 273 279 290 291 309 297 296 322 294 285 282 279 271 282 287 288 289 289 288 287 286 284 282
92 91 85 83 75 60 43 22 331 296 272 246 238 252 267 267 280 287 273 265 265 275 295 287 276 276 274 281 289 292 294 295 294 293 291 289 287 284
79 79 80 73 75 61 17 345 300 293 282 263 232 247 258 255 241 247 254 268 271 270 260 275 279 274 280 277 288 292 294 296 296 296 295 293 290 287
74 74 76 62 19 347 339 310 303 298 299 298 283 281 281 283 278 266 268 282 291 290 254 256 277 290 282 277 282 290 295 300 302 300 297 295 293 291
63 72 74 25 330 326 328 319 308 302 323 325 309 301 295 290 290 264 221 241 274 289 269 281 291 321 304 278 275 286 292 294 296 296 296 296 295 292
36 12 328 332 327 321 322 310 292 302 302 298 295 292 293 289 292 291 248 225 250 261 272 299 282 273 270 291 287 271 270 278 286 288 292 292 291 289
5 350 327 326 324 321 318 305 309 319 315 299 295 295 297 297 296 299 292 275 256 262 270 269 270 274 280 283 285 284 279 272 274 280 278 284 286 286
341 331 324 322 324 322 314 315 322 320 304 298 295 292 287 287 296 296 287 275 267 261 261 255 257 264 265 271 277 283 293 290 272 265 270 271 271 273
345 323 320 316 313 302 308 316 300 267 278 272 283 289 297 298 294 288 289 295 290 282 255 245 246 253 263 265 270 278 277 275 280 276 276 276 268 260
330 320 312 316 321 317 313 306 303 309 310 298 296 300 301 299 296 293 285 288 284 292 297 276 248 246 251 261 271 271 273 273 271 276 279 281 273 259
331 316 310 315 313 313 314 314 313 310 303 299 298 295 296 296 296 293 286 285 286 288 290 293 294 291 278 255 239 257 265 269 273 271 271 280 284 271
313 299 298 298 296 297 297 296 296 295 294 291 288 288 288 288 289 290 290 288 286 286 286 286 286 289 294 296 269 225 250 274 280 279 273 271 279 281
274 276 281 285 285 286 287 287 289 292 290 287 285 284 284 285 285 286 286 286 288 289 289 282 272 271 277 286 290 279 249 257 272 279 282 277 273 276
280 276 274 275 275 275 277 280 282 285 285 285 284 281 280 280 281 283 285 287 289 288 287 286 277 280 278 278 280 281 271 247 251 266 280 285 287 285
270 271 272 272 272 271 274 277 280 280 281 280 279 279 279 278 280 282 283 285 284 283 283 285 284 282 275 277 281 287 291 287 265 262 262 261 271 277
264 266 268 271 272 271 272 274 275 277 276 276 278 278 278 279 279 279 281 281 282 284 287 290 288 280 275 274 279 283 287 291 292 288 275 264 262 262